Regional Weather Roundup
Issued by NWS

Home | Current Version | Previous Version | Text Only | Print | Product List | Glossary On
Versions: 1 2 3 4 5 6 7 8 9 10 11 12 13 14 15 16 17 18 19 20 21 22 23 24 25 26 27 28 29 30 31 32 33 34 35 36 37 38 39 40 41 42 43 44 45 46 47 48 49 50
000
ASUS43 KTOP 161308
RWRKS

WEATHER ROUNDUP FOR KANSAS
NATIONAL WEATHER SERVICE GOODLAND KS
700 AM CST MON JAN 16 2017

NOTE:  "FAIR" INDICATES FEW OR NO CLOUDS BELOW 12,000 FEET WITH NO
SIGNIFICANT WEATHER AND/OR OBSTRUCTIONS TO VISIBILITY.

KSZ001>006-013>018-027>032-041>047-161400-
NORTHWEST KANSAS

CITY           SKY/WX    TMP DP  RH WIND       PRES   REMARKS
GOODLAND       FRZ RAIN  31  30  96 N20       29.86S WCI  19
HAYS           MIX PCPN N/A N/A N/A N12       29.86
HILL CITY      FRZ RAIN  32  32 100 N7        29.88R FOG
RUSSELL        FRZ RAIN  32  31  96 N12       29.84R WCI  23
$$

KSZ061>065-074>080-084>089-161400-
SOUTHWEST KANSAS

CITY           SKY/WX    TMP DP  RH WIND       PRES   REMARKS
DODGE CITY     CLOUDY    31  30  96 N15       29.79S WCI  20
ELKHART          N/A     29  23  78 NW7         N/A
GARDEN CITY    CLOUDY    31  29  92 N14       29.81S FOG     WCI  21
GREAT BEND     CLOUDY    32  31  96 N15       29.82F WCI  22
LIBERAL        CLOUDY    32  27  80 MISG      29.82R
PRATT          CLOUDY    30  29  98 N3        29.77F
$$

KSZ066>073-081>083-090>101-161400-
SOUTHEAST KANSAS

CITY           SKY/WX    TMP DP  RH WIND       PRES   REMARKS
CHANUTE        CLOUDY    51  50  96 SE9       29.83R
HUTCHINSON     LGT RAIN  33  32  96 N8        29.79S
MEDICINE LODGE   N/A     32  32 100 W3        29.80R
NEWTON         LGT RAIN  38  38 100 E9        29.77F FOG
PARSONS        CLOUDY    54  52  93 S6        29.84R
WICHITA INTL   CLOUDY    42  42 100 CALM      29.74F
WICHITA JABRA  CLOUDY    42  42 100 SE3       29.76S FOG
WICHITA MCCONL MOCLDY    43  42  99 S6        29.75R
WINFIELD       MOCLDY    43  43 100 S12       29.81R
$$

KSZ007>012-019>026-033>040-048>060-102>105-161400-
NORTHEAST KANSAS

CITY           SKY/WX    TMP DP  RH WIND       PRES   REMARKS
CONCORDIA      MIX PCPN  32  32 100 NE14      29.85F FOG     WCI  22
EMPORIA        LGT RAIN  41  41 100 E9        29.81S FOG
LAWRENCE       CLOUDY    35  35 100 NE10      29.89F WCI  27
MANHATTAN      LGT RAIN  34  33  96 NE10      29.85F FOG     WCI  26
MARYSVILLE     LGT SNOW  32  32 100 NE6       29.89F
OLATHE IND     CLOUDY    39  39 100 E9        29.89F
OLATHE EXE     CLOUDY    37  37 100 E12       29.89F FOG     WCI  29
SALINA         RAIN      34  32  92 NE6       29.84  FOG
TOPEKA BILLARD CLOUDY    36  33  89 E12       29.88F FOG     WCI  28
TOPEKA FORBES  CLOUDY    37  35  92 E10       29.86F FOG     WCI  30
$$



USA.gov is the U.S. government's official web portal to all federal, state and local government web resources and services.